[[{"header":{"parameterUnit":"m.s-1","parameterCategory":1,"la1":30.2991,"la2":30.254,"lo1":-89.0895,"lo2":-89.0444,"dy":0.0017,"dx":0.0017,"nx":28,"ny":28,"refTime":"2024-02-12T09:00:00:Z","depth":0,"parameterNumber":2,"parameterNumberName":"U-component_of_WINDS"},"data":[0,0,0,0,0,0,0,0,0,0,0,0,0,0,0,0,0,0,0,0,0,0,0,0,0,0,0,0,0,0,0,0,0,0,0,0,0,0,0,0,0,0,0,0,0,0,0,0,0,0,0,0,0,0,0,0,0,0,2.608,2.6081,0,2.611,2.6111,2.6111,2.6086,2.6085,2.6084,2.6083,2.6112,2.6113,2.6115,0,0,0,0,0,0,0,0,0,0,0,0,0,2.6001,2.6002,2.608,2.6081,2.6081,2.611,2.6111,2.6111,2.6086,2.6085,2.6083,2.6082,2.6111,2.6113,2.6115,0,0,0,0,0,0,0,0,0,0,0,0,0,2.6034,2.6003,2.608,2.6072,2.6072,2.611,2.6111,2.6111,2.6086,2.6085,2.6083,2.6082,2.611,2.6113,2.6116,2.6163,0,0,2.6124,2.6125,0,0,0,0,0,0,0,0,2.6032,2.6036,2.6073,2.6073,2.6072,2.6093,2.6093,2.6129,2.6087,2.6081,2.6083,2.6081,2.6107,2.6109,2.6118,2.6165,2.6166,2.6124,2.6126,2.6127,2.6127,0,0,0,0,0,0,0,2.6029,2.6035,2.6092,2.6073,2.6073,2.6067,2.607,2.61,2.6102,2.6081,2.6079,2.6083,2.6106,2.6116,2.6119,2.6166,2.6124,2.6126,2.6128,2.6129,2.6255,2.6257,0,0,0,0,0,0,2.6028,2.6033,2.6091,2.6093,2.6048,2.607,2.6073,2.6088,2.6102,2.6102,2.6085,2.6082,2.6112,2.6116,2.612,2.6178,2.6127,2.6129,2.6131,2.6254,2.6256,2.6258,0,0,0,0,0,0,2.6027,2.6034,2.609,2.6063,2.6069,2.6073,2.609,2.6089,2.6099,2.6104,2.6104,2.6094,2.6111,2.6116,2.6153,2.6178,2.613,2.6133,2.6252,2.6254,2.6257,2.6293,0,0,0,0,0,0,2.6024,2.6033,2.6051,2.6063,2.6071,2.6123,2.6091,2.6091,2.6104,2.6101,2.6113,2.6114,2.611,2.615,2.6156,2.6181,2.6135,2.6249,2.6253,2.6256,2.629,2.6297,2.6303,0,0,0,0,0,2.6022,2.6059,2.6052,2.6059,2.6094,2.6124,2.6129,2.6124,2.6106,2.6124,2.6128,2.6114,2.6175,2.6154,2.6161,2.6187,2.6248,2.6252,2.6256,2.6287,2.6295,2.6303,0,0,0,0,0,0,2.6049,2.6061,2.6053,2.6096,2.6109,2.612,2.6143,2.6133,2.6151,2.6148,2.6141,2.6144,2.6183,2.6189,2.6165,2.6235,2.6208,2.6214,2.623,2.6238,2.6244,2.6242,2.6137,0,0,0,0,0,2.606,2.6084,2.6093,2.613,2.6138,2.6139,2.6152,2.6148,2.6162,2.6167,2.6173,2.6187,2.6209,2.6224,2.6244,2.6291,2.6294,2.6313,2.6319,2.6324,2.6329,2.6355,2.6364,2.6271,2.6271,2.6271,0,0,2.6083,2.6092,2.6108,2.6136,2.6146,2.6171,2.6144,2.6172,2.619,2.6171,2.6207,2.6212,2.6227,2.6269,2.6288,2.6275,2.6356,2.6329,2.6334,2.6335,2.636,2.6369,2.6377,2.6274,2.6273,2.6273,0,0,2.6138,2.6147,2.618,2.6191,2.6207,2.6208,2.6216,2.6229,2.6232,2.6268,2.6255,2.6277,2.6315,2.6327,2.6338,2.64,2.6388,2.6407,2.644,2.6466,2.6473,2.648,2.6502,2.6511,2.6412,2.6412,2.6412,0,2.6164,2.6201,2.6197,2.6227,2.624,2.6225,2.6258,2.6269,2.6291,2.63,2.6286,2.6335,2.6343,2.6389,2.6404,2.6414,2.6423,2.6405,2.6473,2.6479,2.6485,2.6507,2.6515,2.6414,2.6414,2.6413,2.6413,0,2.6233,2.626,2.6284,2.6307,2.6323,2.6354,2.6355,2.6372,2.6367,2.637,2.6408,2.6418,2.6441,2.6452,2.6446,2.6497,2.6489,2.6474,2.6447,2.6496,2.6516,2.6525,2.6417,2.6416,2.6416,2.6415,0,0,2.6304,2.6326,2.6335,2.6346,2.6364,2.6384,2.6415,2.6439,2.6454,2.647,2.6496,2.653,2.6517,2.653,2.6526,2.6548,2.6598,2.6531,2.6531,2.6543,2.6655,2.6666,2.6676,2.6591,2.6592,2.6593,2.6654,0,2.636,2.6414,2.6412,2.6463,2.6488,2.6475,2.6503,2.6517,2.6521,2.6543,2.6547,2.6572,2.6552,2.656,2.6582,2.6587,2.662,2.6583,2.6615,2.6616,2.6611,2.6686,2.6698,2.6755,2.6662,2.6663,2.6664,0,2.6431,2.6451,2.6505,2.6521,2.6531,2.6556,2.6578,2.66,2.6616,2.6618,2.6633,2.6626,2.6658,2.6631,2.6676,2.665,2.6664,2.6668,2.6671,2.6673,2.6643,2.6691,2.6773,2.6781,2.6677,2.6676,2.6675,0,2.6478,2.6518,2.6556,2.6566,2.6585,2.6603,2.6612,2.6626,2.6642,2.6662,2.6671,2.6695,2.6707,2.6725,2.6725,2.6706,2.6771,2.6744,2.6773,2.6773,2.6786,2.6785,2.6871,2.6795,2.6795,2.6795,2.6795,0,2.654,2.6573,2.6577,2.66,2.6638,2.6636,2.6673,2.668,2.6694,2.6719,2.6709,2.6732,2.6731,2.6755,2.6755,2.6792,2.6798,2.68,2.68,2.6801,2.6801,2.6809,2.6805,2.6797,2.6797,2.6796,2.6796,0,2.6598,2.6602,2.6642,2.6658,2.6663,2.669,2.6704,2.6726,2.673,2.6761,2.6769,2.6775,2.6803,2.6805,2.6837,2.6837,2.6882,2.6878,2.6877,2.6876,2.6905,2.6903,2.6999,2.7012,2.6928,2.6929,2.693,0,2.6637,2.6662,2.6682,2.6698,2.6708,2.6734,2.675,2.675,2.6767,2.6789,2.6809,2.6836,2.6857,2.6902,2.691,2.6934,2.693,2.6963,2.6934,2.6935,2.6931,2.6929,2.6932,2.6968,2.6969,2.6969,2.697,0,2.6706,2.6707,2.6731,2.6756,2.6776,2.6795,2.6813,2.6827,2.6829,2.6849,2.6878,2.6895,2.6928,2.6955,2.698,2.6989,2.698,2.698,2.6988,2.6989,2.6987,2.6989,2.6892,2.6977,2.6976,2.6976,2.6975,2.6975,2.6756,2.6778,2.6796,2.6823,2.6837,2.6855,2.6877,2.6885,2.6909,2.6937,2.6936,2.6968,2.6985,2.7018,2.7029,2.7054,2.7043,2.7055,2.7058,2.706,2.7064,2.6984,2.7059,2.7058,2.7058,2.7058,2.7058,0,2.6825,2.6836,2.6861,2.6888,2.6909,2.6901,2.6921,2.6939,2.6968,2.6985,2.7007,2.7041,2.7068,2.7079,2.7105,2.7123,2.712,2.713,2.7129,2.7131,2.7072,2.7062,2.7133,2.7133,2.7133,2.7133,2.7133,2.7132,2.6863,2.6901,2.6905,2.6951,2.6962,2.6994,2.7007,2.7023,2.7037,2.7076,2.7098,2.7106,2.7121,2.7149,2.7173,2.7176,2.7186,2.7198,2.7199,2.7143,2.7135,2.7128,2.7119,2.72,2.72,2.7256,2.7256,2.7257]},{"header":{"parameterUnit":"m.s-1","parameterCategory":1,"la1":30.2991,"la2":30.254,"lo1":-89.0895,"lo2":-89.0444,"dy":0.0017,"dx":0.0017,"nx":28,"ny":28,"refTime":"2024-02-12T09:00:00:Z","depth":0,"parameterNumber":3,"parameterNumberName":"V-component_of_WINDS"},"data":[0,0,0,0,0,0,0,0,0,0,0,0,0,0,0,0,0,0,0,0,0,0,0,0,0,0,0,0,0,0,0,0,0,0,0,0,0,0,0,0,0,0,0,0,0,0,0,0,0,0,0,0,0,0,0,0,0,0,-6.1252,-6.1254,0,-6.1398,-6.1399,-6.1401,-6.136,-6.1358,-6.1355,-6.1352,-6.1499,-6.1505,-6.1512,0,0,0,0,0,0,0,0,0,0,0,0,0,-6.0937,-6.0943,-6.1252,-6.1254,-6.1256,-6.1398,-6.14,-6.1401,-6.1361,-6.1357,-6.1354,-6.135,-6.1496,-6.1504,-6.1512,0,0,0,0,0,0,0,0,0,0,0,0,0,-6.1077,-6.0945,-6.1252,-6.1253,-6.1254,-6.1397,-6.14,-6.1402,-6.1362,-6.1357,-6.1353,-6.1349,-6.1494,-6.1504,-6.1513,-6.1664,0,0,-6.1544,-6.1548,0,0,0,0,0,0,0,0,-6.107,-6.1089,-6.1251,-6.1253,-6.1255,-6.1356,-6.1342,-6.149,-6.1363,-6.1321,-6.1352,-6.1347,-6.1455,-6.1468,-6.1505,-6.167,-6.1677,-6.1545,-6.1551,-6.1555,-6.1558,0,0,0,0,0,0,0,-6.106,-6.1083,-6.131,-6.1253,-6.1256,-6.1245,-6.126,-6.137,-6.1411,-6.1324,-6.1322,-6.1339,-6.1455,-6.1495,-6.1508,-6.1679,-6.1545,-6.1553,-6.156,-6.1563,-6.1975,-6.198,0,0,0,0,0,0,-6.1049,-6.1075,-6.1305,-6.1314,-6.1149,-6.1254,-6.1271,-6.1328,-6.1409,-6.1418,-6.1343,-6.1337,-6.148,-6.1496,-6.1513,-6.1694,-6.1555,-6.1564,-6.157,-6.197,-6.1976,-6.1982,0,0,0,0,0,0,-6.1042,-6.107,-6.1299,-6.1194,-6.1222,-6.1265,-6.1329,-6.1333,-6.1374,-6.1424,-6.1431,-6.1377,-6.1477,-6.1499,-6.1627,-6.1699,-6.1569,-6.1578,-6.1965,-6.1972,-6.1979,-6.2058,0,0,0,0,0,0,-6.1033,-6.1068,-6.1126,-6.1195,-6.1228,-6.1411,-6.1333,-6.134,-6.1391,-6.1385,-6.1457,-6.1465,-6.1476,-6.1612,-6.1637,-6.171,-6.1586,-6.1958,-6.1968,-6.1977,-6.2049,-6.2067,-6.2082,0,0,0,0,0,-6.1022,-6.1141,-6.1129,-6.1157,-6.1301,-6.1416,-6.1434,-6.1445,-6.1397,-6.1455,-6.1488,-6.1463,-6.1687,-6.1625,-6.1653,-6.173,-6.1954,-6.1965,-6.1976,-6.2041,-6.2063,-6.2082,0,0,0,0,0,0,-6.1078,-6.1151,-6.1137,-6.1283,-6.1344,-6.1409,-6.1482,-6.1467,-6.1542,-6.1533,-6.1542,-6.1559,-6.169,-6.1723,-6.1653,-6.188,-6.1813,-6.183,-6.1854,-6.1875,-6.1891,-6.188,-6.1594,0,0,0,0,0,-6.1108,-6.1195,-6.1253,-6.1376,-6.1407,-6.144,-6.149,-6.1493,-6.1556,-6.1581,-6.1622,-6.1684,-6.1768,-6.1823,-6.1903,-6.2054,-6.2069,-6.212,-6.2137,-6.2151,-6.2165,-6.2247,-6.227,-6.2018,-6.2018,-6.2018,0,0,-6.1169,-6.1219,-6.1274,-6.1388,-6.1436,-6.1525,-6.1461,-6.1559,-6.1625,-6.1595,-6.1719,-6.1752,-6.1821,-6.196,-6.2024,-6.1992,-6.2238,-6.2165,-6.2175,-6.2183,-6.2261,-6.2285,-6.2306,-6.2026,-6.2024,-6.2023,0,0,-6.1326,-6.1373,-6.1481,-6.153,-6.1603,-6.1624,-6.165,-6.1718,-6.1738,-6.1863,-6.1842,-6.1921,-6.2066,-6.2116,-6.216,-6.2338,-6.2317,-6.2364,-6.2451,-6.253,-6.255,-6.2568,-6.2631,-6.2654,-6.2378,-6.2378,-6.2378,0,-6.1393,-6.1528,-6.1538,-6.1638,-6.1689,-6.1666,-6.1775,-6.1822,-6.1917,-6.1952,-6.1915,-6.2097,-6.2142,-6.2293,-6.2337,-6.2373,-6.2403,-6.2355,-6.2547,-6.2565,-6.2581,-6.2641,-6.2665,-6.2383,-6.2383,-6.2382,-6.2382,0,-6.1607,-6.1701,-6.1778,-6.1872,-6.1932,-6.2035,-6.206,-6.2119,-6.2117,-6.2142,-6.2269,-6.2322,-6.2413,-6.2449,-6.2447,-6.26,-6.2578,-6.2544,-6.2477,-6.261,-6.2667,-6.269,-6.2391,-6.2389,-6.2387,-6.2386,0,0,-6.1803,-6.1901,-6.1929,-6.1972,-6.2051,-6.2123,-6.2226,-6.2315,-6.2366,-6.2432,-6.2518,-6.2642,-6.2611,-6.2662,-6.2665,-6.2735,-6.2872,-6.2693,-6.2694,-6.2724,-6.3044,-6.3069,-6.3095,-6.2859,-6.2864,-6.2867,-6.3038,0,-6.1967,-6.2149,-6.216,-6.2324,-6.2411,-6.2392,-6.2481,-6.2539,-6.2565,-6.2642,-6.267,-6.2757,-6.271,-6.2741,-6.2809,-6.2841,-6.2937,-6.2829,-6.2939,-6.2943,-6.2922,-6.3125,-6.3152,-6.331,-6.306,-6.3064,-6.3067,0,-6.2183,-6.2257,-6.243,-6.2497,-6.2534,-6.2614,-6.2697,-6.2771,-6.2836,-6.285,-6.2907,-6.2902,-6.3006,-6.2936,-6.308,-6.3007,-6.3052,-6.3075,-6.3081,-6.3092,-6.3013,-6.3141,-6.3361,-6.3385,-6.3102,-6.3099,-6.3096,0,-6.2309,-6.2451,-6.2573,-6.261,-6.2692,-6.2748,-6.2785,-6.2846,-6.2899,-6.2971,-6.3006,-6.3089,-6.3135,-6.32,-6.3216,-6.3164,-6.336,-6.3291,-6.3374,-6.3374,-6.3416,-6.3413,-6.3647,-6.3446,-6.3446,-6.3445,-6.3445,0,-6.2491,-6.2597,-6.2631,-6.2706,-6.2825,-6.2837,-6.2954,-6.2987,-6.3041,-6.3122,-6.311,-6.3185,-6.3203,-6.3282,-6.3296,-6.3413,-6.3433,-6.3447,-6.3449,-6.3448,-6.3447,-6.3478,-6.3467,-6.3452,-6.345,-6.3449,-6.3448,0,-6.2651,-6.2678,-6.281,-6.2876,-6.2896,-6.298,-6.3037,-6.3109,-6.3133,-6.3235,-6.326,-6.3298,-6.3391,-6.3414,-6.3524,-6.3533,-6.3672,-6.3663,-6.365,-6.3649,-6.3731,-6.3723,-6.3993,-6.4029,-6.3805,-6.3807,-6.3808,0,-6.2765,-6.2847,-6.2923,-6.2976,-6.3016,-6.3102,-6.3156,-6.3172,-6.3229,-6.331,-6.3372,-6.3463,-6.3537,-6.3685,-6.3722,-6.3806,-6.38,-6.3889,-6.3812,-6.3809,-6.3801,-6.3796,-6.3804,-6.3903,-6.3905,-6.3907,-6.3909,0,-6.2966,-6.2975,-6.3055,-6.314,-6.3205,-6.3272,-6.3336,-6.3381,-6.3405,-6.347,-6.3565,-6.3622,-6.3735,-6.3825,-6.391,-6.3947,-6.3932,-6.3933,-6.3956,-6.3956,-6.3945,-6.3952,-6.3689,-6.3926,-6.3925,-6.3923,-6.3922,-6.3922,-6.3106,-6.3178,-6.3243,-6.3332,-6.3382,-6.3443,-6.3513,-6.3547,-6.3627,-6.3721,-6.3725,-6.3828,-6.3891,-6.4003,-6.4045,-6.4125,-6.4098,-6.4132,-6.4141,-6.4149,-6.4156,-6.3932,-6.4141,-6.414,-6.414,-6.4139,-6.4139,0,-6.3306,-6.3347,-6.3429,-6.3519,-6.3589,-6.357,-6.3641,-6.37,-6.3792,-6.3852,-6.3925,-6.4034,-6.4122,-6.4166,-6.4253,-6.4309,-6.4305,-6.4331,-6.4327,-6.4336,-6.4176,-6.4147,-6.4334,-6.4334,-6.4334,-6.4333,-6.4333,-6.4333,-6.3418,-6.3538,-6.3555,-6.37,-6.374,-6.3842,-6.3884,-6.3939,-6.3988,-6.411,-6.4184,-6.4212,-6.4266,-6.4357,-6.4437,-6.4447,-6.448,-6.451,-6.4518,-6.4367,-6.4347,-6.4328,-6.4301,-6.4517,-6.4518,-6.4671,-6.4673,-6.4674]}]]